Location: Arroyo del Boqueron
(40.7333°N, 4.2333°W)
Time: 04:07:17
(UTC+00:00)

Daily predictions for brighter satellites

Satellite Brightness Start Highest point End
(mag) Time Altitude Azimuth Time Altitude Azimuth Time Altitude Azimuth
Cosmos 2082 Rocket 3.4 00:07:01 31° E 00:07:01 31° E 00:11:12 10° NE
Cosmos 1833 Rocket 2.7 00:08:10 69° WNW 00:08:13 69° WNW 00:13:49 10° NNE
Cosmos 724 4.3 00:12:02 73° E 00:12:02 73° E 00:17:32 10° NE
Cosmos 1417 Rocket 4.4 00:11:27 10° N 00:17:46 76° W 00:18:02 75° WSW
Cosmos 1140 Rocket 3.8 00:22:28 62° NW 00:22:28 62° NW 00:27:20 10° NNE
ATLAS CENTAUR R/B 4.4 00:11:03 10° NW 00:25:03 80° NE 00:31:03 28° SE
PSLV R/B 4.5 00:23:11 10° N 00:26:44 46° NNW 00:26:44 46° NNW
USA 267 3.5 00:21:17 10° NE 00:27:45 66° NW 00:30:21 38° WSW
Cosmos 1400 Rocket 4.4 00:32:16 31° NE 00:32:16 31° NE 00:34:36 10° NNE
Cosmos 1733 Rocket 4.4 00:28:38 10° N 00:31:54 34° NE 00:31:54 34° NE
GP-B 3.9 00:31:45 10° N 00:35:02 49° N 00:35:02 49° N
H-2A R/B 3.1 00:35:34 10° N 00:38:59 44° NW 00:38:59 44° NW
NOSS 3-4 (A) 4.1 00:36:31 10° NNW 00:43:30 68° NE 00:47:10 34° SE
NOSS 3-4 (C) 4.1 00:36:37 10° NNW 00:43:36 68° NE 00:47:19 34° SE
Cosmos 2251 Rocket 3.7 00:44:26 66° NW 00:44:26 66° NW 00:49:23 10° NNE
Cosmos 407 Rocket 3.8 00:44:27 61° WNW 00:44:27 61° WNW 00:49:29 10° NNE
S3M 4.2 00:38:14 10° NNW 00:44:28 57° W 00:44:46 56° WSW
Cosmos 1954 Rocket 4.4 00:48:42 55° E 00:48:42 55° E 00:53:28 10° NNE
Cosmos 2315 Rocket 3.9 00:43:44 10° N 00:50:02 76° W 00:50:26 73° SW
Cosmos 1190 Rocket 4.1 00:51:10 75° NE 00:51:10 75° NE 00:56:04 10° NNE
Cosmos 2285 Rocket 4.5 00:51:49 44° W 00:52:53 49° WNW 00:59:00 10° N
Cosmos 1763 Rocket 3.6 00:53:01 10° NNW 00:58:19 73° ENE 00:58:19 73° ENE
USA 234 3.5 00:56:30 17° ESE 01:01:39 69° NE 01:08:10 10° NW
Cosmos 1862 Rocket 4.2 01:04:13 52° N 01:04:13 52° N 01:07:32 10° N
Meteor 1-23 Rocket 4.3 01:03:41 60° W 01:03:45 60° WNW 01:09:19 10° N
Cosmos 1953 4.2 01:02:23 10° NNE 01:05:20 24° ENE 01:05:20 24° ENE
Cosmos 1697 Rocket 3.5 01:01:30 10° NW 01:05:45 38° W 01:05:45 38° W
Cosmos 1980 Rocket 2.0 01:08:16 10° NNW 01:14:00 80° WSW 01:14:01 80° WSW
Cosmos 540 Rocket 3.4 01:11:35 10° NNW 01:16:46 77° ENE 01:16:52 77° E
COSMOS 2406 3.1 01:19:32 72° WSW 01:19:58 77° WNW 01:25:46 10° NNE
Cosmos 1244 Rocket 4.3 01:20:19 70° SSW 01:21:03 82° W 01:27:16 10° N
Cosmos 1356 Rocket 4.3 01:22:17 45° NNW 01:22:17 45° NNW 01:25:18 10° N
ADEOS II 4.2 01:19:18 10° NE 01:22:19 15° E 01:24:13 13° ESE
Lacrosse 5 rocket 3.8 01:21:22 10° NNW 01:24:32 21° NNE 01:27:36 10° E
Cosmos 2369 3.5 01:19:20 10° NNW 01:25:04 85° WSW 01:25:30 77° S
IDEFIX/ARIANE 42P 3.5 01:22:48 10° NNE 01:27:38 36° E 01:28:28 34° ESE
Okean 1-7 3.3 01:30:04 63° NNE 01:30:04 63° NNE 01:33:45 10° N
Meteor 2-10 Rocket 4.2 01:25:10 10° NNW 01:30:39 46° W 01:30:39 46° W
Meteor 1-16 Rocket 4.2 01:27:15 10° N 01:32:59 87° E 01:33:51 66° SSE
Okean 3 4.3 01:34:53 41° NW 01:34:53 41° NW 01:37:56 10° N
Cosmos 1315 Rocket 3.5 01:39:37 50° NE 01:39:37 50° NE 01:42:46 10° NNE
SJ 16-02 3.3 01:39:50 18° ESE 01:40:19 19° E 01:43:21 10° NE
Helios 1A Rocket 3.9 01:43:06 36° NW 01:43:06 36° NW 01:45:36 10° NNW
SL-16 R/B 3.2 01:38:58 10° NNW 01:44:23 43° ENE 01:49:03 14° SE
Cosmos 1850 Rocket 4.2 01:46:14 54° SE 01:46:56 59° ESE 01:52:08 10° NNE
Cosmos 2082 Rocket 3.1 01:48:50 33° W 01:50:08 37° WNW 01:55:25 10° N
Cosmos 1709 Rocket 4.4 01:49:42 37° SSE 01:52:00 58° E 01:58:14 10° NNE
Cosmos 1741 Rocket 4.1 01:51:18 55° SE 01:52:03 62° ESE 01:57:14 10° NNE
SL-16 R/B 4.3 01:50:02 10° ESE 01:55:14 29° ENE 02:00:27 10° N
Cosmos 1386 Rocket 4.5 01:55:08 52° SSW 01:56:45 76° W 02:03:11 10° N
Cosmos 1782 Rocket 4.1 01:54:30 10° N 01:58:48 52° E 01:59:38 44° ESE
Cosmos 1908 Rocket 3.5 01:55:08 10° N 01:59:24 74° WNW 01:59:24 74° WNW
CZ-2D R/B 2.6 01:55:42 10° NNE 02:01:03 54° E 02:02:41 40° SSE
Cosmos 968 Rocket 3.8 02:02:10 45° SE 02:03:13 54° ESE 02:08:12 10° NNE
Cosmos 2237 4.4 01:58:33 10° NNW 02:04:17 71° ENE 02:07:48 24° SE
Genesis I 4.1 02:05:37 36° E 02:05:37 36° E 02:08:18 10° NE
Cosmos 1455 3.0 02:02:44 10° NNW 02:05:04 39° NNW 02:05:04 39° NNW
Cosmos 2360 Rocket 3.8 02:01:16 10° N 02:06:20 32° ENE 02:11:23 10° ESE
DELTA 2 R/B (1) 3.4 02:06:59 42° W 02:08:54 80° S 02:14:27 10° E
MSX 3.8 02:08:19 10° NNE 02:14:05 82° ESE 02:16:00 44° S
Cosmos 841 Rocket 3.4 02:09:50 10° NNW 02:15:04 74° WSW 02:16:20 51° S
Resurs 1-4 Rocket 2.1 02:10:14 10° NNE 02:15:30 77° ESE 02:17:04 47° S
H-2A R/B 3.3 02:15:46 10° N 02:19:43 67° WNW 02:19:49 66° W
OAO 3 Rocket 3.8 02:24:07 40° SSE 02:24:07 40° SSE 02:28:00 10° ESE
Meteor 1-4 Rocket 4.4 02:25:17 17° NW 02:25:17 17° NW 02:26:24 10° NNW
FENGYUN 3A 4.1 02:19:40 10° NNE 02:24:56 54° E 02:27:27 29° SSE
Cosmos 2278 3.6 02:20:44 10° NNW 02:26:24 66° WSW 02:28:37 37° S
COBE Rocket 4.1 02:21:41 10° N 02:26:31 59° WNW 02:27:39 46° SW
CZ-2C R/B 2.4 02:29:15 33° SSE 02:31:38 87° W 02:36:49 10° NNW
Cosmos 2242 Rocket 3.5 02:30:52 54° S 02:31:52 87° W 02:36:21 10° N
Timation 1 Rocket 4.3 02:32:20 39° SW 02:34:36 73° WNW 02:40:35 10° NNE
Cosmos 1745 Rocket 4.5 02:33:16 34° WSW 02:35:16 44° WNW 02:41:15 10° N
Cosmos 2333 Rocket 3.0 02:33:51 10° NNW 02:39:27 53° ENE 02:45:02 10° SE
SL-27 R/B 2.3 02:40:26 59° NE 02:40:26 59° NE 02:42:49 10° NNE
Cosmos 2098 Rocket 4.1 02:35:22 10° N 02:40:40 63° E 02:46:36 11° SSE
Cosmos 1953 4.0 02:38:21 10° NW 02:40:27 19° WNW 02:40:27 19° WNW
Cosmos 1814 Rocket 4.3 02:38:14 10° NNW 02:43:27 68° ENE 02:48:41 10° SSE
Cosmos 2322 Rocket 2.2 02:38:25 10° NNW 02:44:06 82° ENE 02:49:47 10° SSE
Cosmos 1242 Rocket 3.4 02:44:54 29° NW 02:44:54 29° NW 02:46:50 10° N
USA 234 3.8 02:43:44 31° SSW 02:44:54 33° SW 02:50:44 10° WNW
SL-8 R/B 3.6 02:41:33 10° WNW 02:46:15 61° SW 02:50:58 10° SE
Meteor 2-5 Rocket 4.0 02:43:00 25° S 02:46:31 74° E 02:52:27 10° NNE
SL-4 R/B 2.8 02:47:25 34° S 02:48:28 40° SE 02:52:37 10° ENE
NPP 4.3 02:44:57 10° N 02:50:00 42° WNW 02:52:03 30° WSW
Cosmos 1408 2.9 02:53:36 36° WNW 02:53:36 36° WNW 02:56:05 10° N
Cosmos 2074 Rocket 4.4 02:48:44 15° SSE 02:53:50 60° E 02:59:57 10° NNE
Okean 2 Rocket 4.4 02:51:21 10° N 02:55:29 39° ENE 02:59:36 10° SSE
Cosmos 1674 Rocket 4.5 02:52:26 17° SSE 02:55:30 46° E 02:59:46 10° NNE
Cosmos 1300 Rocket 4.0 02:52:27 10° NNW 02:56:31 41° W 02:57:22 37° WSW
Tiangong -0.4 03:00:18 20° SE 03:00:18 20° SE 03:02:25 10° E
Cosmos 1833 4.2 02:58:20 29° SSW 03:01:21 83° WNW 03:07:02 10° NNE
ADEOS II 2.1 02:57:10 10° N 03:02:21 64° WNW 03:05:05 28° SW
Lacrosse 5 rocket 1.1 02:59:14 10° NW 03:03:14 63° SW 03:07:01 10° SSE
IDEFIX/ARIANE 42P 3.8 03:02:33 10° N 03:06:59 28° WNW 03:09:14 21° WSW
ALOS 2.2 03:03:01 10° NNE 03:07:41 84° ESE 03:10:34 23° S
Cosmos 2184 Rocket 4.1 03:06:43 15° S 03:11:58 80° E 03:18:16 10° N
Cosmos 1378 Rocket 3.4 03:10:03 23° S 03:12:39 87° E 03:16:59 10° N
Cosmos 405 Rocket 3.6 03:11:12 10° N 03:14:41 45° ENE 03:18:11 10° SSE
SJ 16-02 2.1 03:16:36 25° WSW 03:18:23 35° WNW 03:22:22 10° N
ATLAS CENTAUR R/B 3.1 03:16:00 11° SSE 03:18:27 20° ESE 03:21:05 10° ENE
CZ-2C R/B 3.8 03:15:46 10° NNE 03:20:03 33° E 03:24:13 10° SSE
Envisat 3.7 03:15:40 10° NNE 03:20:38 53° E 03:25:34 10° S
Okean 1 Rocket 4.0 03:17:53 10° N 03:22:05 46° E 03:26:13 10° SSE
Cosmos 2154 Rocket 4.1 03:17:10 11° S 03:23:13 80° E 03:29:26 10° N
UNK 3.7 03:19:54 10° SSE 03:24:32 87° WSW 03:29:12 10° NNW
Nadezhda 3 Rocket 4.4 03:18:58 10° N 03:25:19 66° E 03:31:35 10° SSE
CZ-2C R/B 4.0 03:20:36 10° N 03:25:54 38° WNW 03:29:26 19° SW
Cosmos 839 Rocket 4.0 03:20:11 10° NNW 03:27:11 84° WSW 03:33:20 10° SSE
SL-16 R/B 3.2 03:23:33 10° NW 03:28:11 26° WSW 03:30:47 19° SW
ATLAS 2AS CENTAUR R/B 3.1 03:25:03 10° NNW 03:31:50 65° NE 03:38:23 10° SE
Meteor 1-28 Rocket 4.0 03:34:05 22° SW 03:35:23 28° W 03:38:31 10° NW
Cosmos 2333 4.2 03:29:55 10° NNW 03:35:38 71° WSW 03:41:21 10° SSE
SL-16 R/B 2.8 03:32:29 10° S 03:38:30 48° W 03:44:33 10° NNW
CZ-2D R/B 3.7 03:36:37 10° NNW 03:40:37 21° WNW 03:43:59 12° WSW
Cosmos 2219 Rocket 2.2 03:35:58 10° NNW 03:41:39 87° WSW 03:47:19 10° SSE
BREEZE-M DEB (TANK) 3.7 03:39:58 10° NW 03:42:33 24° NNE 03:44:21 10° ENE
Thor Agena Rocket 4.4 03:41:25 10° NNE 03:46:30 51° E 03:51:36 10° S
RESURS DK-1 2.6 03:44:17 10° NW 03:48:10 45° WSW 03:52:02 10° S
CZ-4 R/B 3.8 03:45:13 10° NNE 03:49:55 81° WNW 03:54:42 10° SSW
Cosmos 2360 Rocket 2.7 03:45:10 10° NW 03:50:19 36° WSW 03:55:26 10° S
COSMOS 2428 3.7 03:44:46 10° NNW 03:50:19 53° ENE 03:55:52 10° SE
Resurs 1-4 Rocket 4.0 03:51:54 10° NNW 03:54:37 14° WNW 03:57:20 10° W
DELTA 2 R/B (1) 3.8 03:49:45 10° W 03:55:08 51° SSW 04:00:29 10° SE
Cosmos 1975 Rocket 4.3 03:52:31 10° SSE 03:56:34 41° E 04:00:37 10° NNE
SL-24 DEB 4.4 03:54:17 10° N 03:58:50 75° E 04:03:20 10° S
BREEZE-M DEB (TANK) 3.9 03:59:37 10° NNW 04:01:42 32° NE 04:05:50 10° ESE
Cosmos 2327 Rocket 4.5 03:59:22 10° S 04:05:34 79° W 04:11:43 10° N
OAO 3 Rocket 4.2 04:02:02 10° WSW 04:06:13 28° SSW 04:10:22 10° SE
H-2A R/B 3.7 04:01:23 10° NNE 04:06:24 36° E 04:11:21 10° SSE
Geosat 4.0 04:03:35 10° SSE 04:08:31 60° WSW 04:13:29 10° NNW
Cosmos 1825 3.0 04:06:40 11° SW 04:09:33 28° WNW 04:12:34 10° NNW
Cosmos 2227 Rocket 4.4 04:06:02 10° SSE 04:10:22 23° E 04:14:44 10° NE
Cosmos 1503 Rocket 4.2 04:05:07 10° SSW 04:10:27 78° ESE 04:15:50 10° NNE
PAYLOAD A 3.9 04:06:40 10° NNE 04:11:30 85° WNW 04:16:27 10° SSW
ASTEX 1 3.4 04:06:56 10° S 04:11:52 72° W 04:16:47 10° N
Cosmos 1892 4.0 04:13:25 10° SW 04:16:09 21° WNW 04:18:54 10° NNW
YAOGAN 6 2.5 04:14:30 10° N 04:17:45 55° WNW 04:20:57 10° SSW
Cosmos 1025 Rocket 3.4 04:16:33 10° SSW 04:20:48 49° W 04:25:04 10° N
Cosmos 371 Rocket 3.3 04:18:27 10° SSW 04:23:11 67° WNW 04:27:58 10° NNE
Cosmos 2333 Rocket 3.4 04:19:02 10° NW 04:23:17 22° W 04:27:33 10° SSW
Cosmos 1455 Rocket 3.1 04:19:07 10° N 04:23:30 88° WSW 04:27:53 10° S
Meteor 1-21 Rocket 4.4 04:22:13 10° SSW 04:28:05 67° W 04:34:00 10° N
